星链-37634(STARLINK-37634)

导读

STARLINK-37634(NORAD编号69028)是SpaceX星链(Starlink)卫星互联网星座中的一颗低轨卫星,归属SpaceX公司的全球卫星宽带互联网项目。星链项目旨在为全球缺乏网络覆盖的区域提供低延迟、高速互联网服务,该卫星原本运行于约550公里高度的近地轨道。 2026年1月SpaceX宣布年内将包含该卫星在内的约4400颗星链卫星轨道高度降至480公里,以提升太空运行安全,降低卫星故障后的碰撞风险,避免产生太空垃圾,缓解近地轨道拥挤问题,应对潜在的凯斯勒现象风险。

基本信息
目录编号:
69028
目录名称:
STARLINK-37634
国际标识:
2026-101D
轨道中心:
EARTH
卫星名称:
星链-37634
卫星全名:
星链-37634(STARLINK-37634)
卫星状态:
在轨 (已飞行121 天)
发射日期:
2026-05-06 UTC
国别 :
美国 (US)
星等 :
--
轨道信息
数据来源 国际轨道数据 AOE轨道数据
星历时间 2026-09-03T20:58:49+0800
17小时前
查看轨道信息
2026-09-03T16:00:00+0800
22小时前
查看轨道信息
半长轴 6843.654km 6843.669km
偏心率 0.0002093 0.0002021
轨道倾角 97.286° 97.285°
近地点辐角 89.030° 80.716°
升交点赤经 100.325° 100.121°
平近点角 271.118° 214.641°
近地点 464.084km 464.148km
远地点 466.95km 466.916km
周期 93.906分钟 93.906分钟
每日圈数 15.334538 15.33449
详细信息
固有亮度:
5
最大亮度:
2.5
卫星平台:
Starlink V1.0
覆盖范围:
全球
运营商:
太空探索技术公司
运营商所在国:
美国
制造商(研发单位):
太空探索技术公司
制造商所在国:
美国
使用方式:
暂无
卫星简介
Starlink 计划是 SpaceX 推出的全球卫星互联网项目,通过发射低轨道卫星,为全球尤其是偏远地区提供高速、低延迟的互联网服务。自 2019 年起,Starlink 已部署数千颗卫星,旨在缩小全球数字鸿沟,推动互联网普及。该项目还为军事、航空等行业提供通信支持,带来广泛经济效益。
2D轨道图
3D轨道图
轨道高度分析图
轨道倾角分析图
轨道综合分析图
查看轨道综合分析图
交会数据列表
事件ID 空间交会对象 最接近时刻(TCA) 交会距离 交会风险概率(CRP) 交会风险指数(CRI) 操作
CDM_260905-040404-177206-902822
2026-09-05T
04:04:37+0000
1.136 km
极远距离
1.768991E-5 中风险 0.6
CDM_260905-053804-177206-902822
2026-09-05T
05:38:33+0000
2.449 km
极远距离
1.847457E-6 低风险 0.4
CDM_260903-043504-831206-902821
2026-09-03T
04:35:34+0000
2.494 km
极远距离
1.628783E-6 低风险 0.39
CDM_260830-124704-810106-902821
2026-08-30T
12:47:39+0000
2.904 km
极远距离
8.938438E-7 极低风险 0.34